GW5051 Weather Reports


time (UTC)temp
F
wind
direction
speed
knots
gust
knots
rain 1hr
in
rain 24hr
in
rain mn
in
humidity
%
barometer
mb
20260506150338 64 270 6.1 13.0 0.00 0.00 0.00 54 1016.4
20260506145834 65 68 3.5 12.2 0.00 0.00 0.00 55 1016.4
20260506145319 64 293 3.5 7.8 0.00 0.00 0.00 55 1016.3
20260506144809 64 293 3.5 7.0 0.00 0.00 0.00 58 1016.3
20260506144259 63 293 1.7 7.0 0.00 0.00 0.00 58 1016.1
20260506143749 62 293 2.6 7.0 0.00 0.00 0.00 59 1016.0
20260506143242 62 338 4.3 7.0 0.00 0.00 0.00 60 1015.9
20260506142728 62 315 2.6 5.2 0.00 0.00 0.00 61 1015.9
20260506142218 61 315 1.7 6.1 0.00 0.00 0.00 61 1015.9
20260506141707 61 338 3.5 6.1 0.00 0.00 0.00 62 1016.3
20260506141157 61 293 2.6 5.2 0.00 0.00 0.00 62 1015.7
20260506140654 62 270 2.6 3.5 0.00 0.00 0.00 62 1015.8
20260506140137 61 293 1.7 3.5 0.00 0.00 0.00 63 1016.3
20260506135627 61 270 0.9 3.5 0.00 0.00 0.00 65 1016.3
20260506134607 61 315 0.9 3.5 0.00 0.00 0.00 66 1016.6
20260506134102 60 270 1.7 3.5 0.00 0.00 0.00 66 1016.7
20260506133547 60 225 0.9 1.7 0.00 0.00 0.00 65 1016.8
20260506133037 60 270 1.7 1.7 0.00 0.00 0.00 64 1016.7
20260506132531 61 293 0.0 0.0 0.00 0.00 0.00 62 1016.5
20260506132016 62 45 0.0 0.0 0.00 0.00 0.00 63 1016.8
20260506131511 61 248 0.0 1.7 0.00 0.00 0.00 65 1016.9
20260506130956 60 225 0.0 3.5 0.00 0.00 0.00 68 1017.0
20260506130447 58 90 0.9 3.5 0.00 0.00 0.00 70 1016.8
20260506125936 58 68 1.7 3.5 0.00 0.00 0.00 72 1016.7
20260506125426 56 113 0.0 6.1 0.00 0.00 0.00 73 1016.8
20260506123856 57 90 1.7 5.2 0.00 0.00 0.00 72 1017.0
20260506123346 56 45 1.7 5.2 0.00 0.00 0.00 72 1016.9
20260506122330 56 68 1.7 3.5 0.00 0.00 0.00 73 1016.7
20260506121815 55 135 0.0 3.5 0.00 0.00 0.00 73 1017.0
20260506121305 55 90 0.0 3.5 0.00 0.00 0.00 76 1016.7
20260506120755 54 68 0.9 1.7 0.00 0.00 0.00 77 1016.8
20260506120245 53 90 0.0 1.7 0.00 0.00 0.00 78 1016.7
20260506115740 53 270 0.0 1.7 0.00 0.00 0.00 79 1016.8
20260506115226 53 0 0.0 0.0 0.00 0.00 0.00 79 1016.7
20260506114714 52 315 0.0 0.0 0.00 0.00 0.00 79 1016.8
20260506114205 52 270 0.0 0.0 0.00 0.00 0.00 78 1017.0
20260506113655 52 315 0.0 0.0 0.00 0.00 0.00 78 1016.9
20260506113149 52 293 0.0 1.7 0.00 0.00 0.00 78 1016.7
20260506112124 53 68 0.9 1.7 0.00 0.00 0.00 78 1016.1
20260506111614 53 113 0.9 1.7 0.00 0.00 0.00 78 1016.1
20260506111104 52 158 0.0 1.7 0.00 0.00 0.00 78 1016.1
20260506110043 52 203 0.0 1.7 0.00 0.00 0.00 77 1016.0
20260506105533 53 90 0.9 1.7 0.00 0.00 0.00 78 1015.6
20260506105024 53 113 1.7 1.7 0.00 0.00 0.00 78 1015.6
20260506104513 52 135 0.0 1.7 0.00 0.00 0.00 78 1015.9
20260506104007 52 180 1.7 1.7 0.00 0.00 0.00 78 1015.8
20260506103454 52 135 1.7 1.7 0.00 0.00 0.00 78 1015.7
20260506102943 52 158 1.7 1.7 0.00 0.00 0.00 78 1015.6
20260506102433 52 180 0.0 1.7 0.00 0.00 0.00 77 1015.4
20260506101923 53 90 0.9 1.7 0.00 0.00 0.00 77 1015.5
20260506101418 53 180 0.0 1.7 0.00 0.00 0.00 77 1015.5
20260506100903 53 135 0.0 0.0 0.00 0.00 0.00 77 1015.6
20260506100352 53 135 0.0 0.0 0.00 0.00 0.00 77 1015.4
20260506095842 53 90 0.0 3.5 0.00 0.00 0.00 77 1015.4
20260506095333 53 338 0.0 3.5 0.00 0.00 0.00 77 1015.3
20260506094826 53 90 1.7 3.5 0.00 0.00 0.00 78 1015.2
20260506094318 53 90 0.0 1.7 0.00 0.00 0.00 78 1015.2
20260506093802 53 248 0.0 1.7 0.00 0.00 0.00 79 1014.8
20260506093252 52 225 0.0 0.0 0.00 0.00 0.00 79 1014.9
20260506092743 52 180 0.0 0.0 0.00 0.00 0.00 79 1014.7
20260506092237 52 135 0.0 0.0 0.00 0.00 0.00 79 1014.7
20260506091721 52 90 0.0 0.0 0.00 0.00 0.00 79 1014.5
20260506091211 52 45 0.0 1.7 0.00 0.00 0.00 79 1014.8
20260506090701 52 315 0.0 1.7 0.00 0.00 0.00 78 1014.6
20260506090151 52 135 0.0 3.5 0.00 0.00 0.00 79 1014.2
20260506085646 52 135 1.7 3.5 0.00 0.00 0.00 79 1014.6
20260506085131 52 68 0.0 1.7 0.00 0.00 0.00 79 1014.6
20260506084620 52 90 0.9 3.5 0.00 0.00 0.00 79 1014.4
20260506083601 52 68 1.7 3.5 0.00 0.00 0.00 78 1014.2
20260506083055 53 90 1.7 3.5 0.00 0.00 0.00 78 1014.7
20260506082540 53 113 1.7 3.5 0.00 0.00 0.00 78 1014.6
20260506082030 53 113 1.7 3.5 0.00 0.00 0.00 78 1014.7
20260506081520 53 68 1.7 1.7 0.00 0.00 0.00 78 1014.7
20260506081010 53 203 0.0 1.7 0.00 0.00 0.00 78 1014.6
20260506080504 53 113 0.0 5.2 0.00 0.00 0.00 79 1014.5
20260506073359 54 225 1.7 3.5 0.00 0.00 0.00 77 1014.1
20260506072849 53 248 0.0 3.5 0.00 0.00 0.00 77 1014.1
20260506072339 53 203 1.7 3.5 0.00 0.00 0.00 77 1014.1
20260506071325 54 248 0.0 1.7 0.00 0.00 0.00 76 1014.0
20260506070809 54 225 0.0 3.5 0.00 0.00 0.00 76 1014.1
20260506070259 54 293 1.7 3.5 0.00 0.00 0.00 75 1014.4
20260506062142 55 225 0.0 1.7 0.00 0.00 0.00 73 1014.6
20260506060607 56 203 0.0 1.7 0.00 0.00 0.00 73 1014.6
20260506050916 56 68 0.0 1.7 0.00 0.00 0.00 72 1015.0
20260506050411 56 225 0.0 0.0 0.00 0.00 0.00 73 1015.0
20260506044836 56 248 0.0 0.0 0.00 0.00 0.00 72 1014.7
20260506043821 56 248 0.0 0.0 0.00 0.00 0.00 72 1014.9
20260506043305 56 158 0.0 1.7 0.00 0.00 0.00 72 1015.1
20260506042755 56 135 0.0 1.7 0.00 0.00 0.00 72 1015.1
20260506042245 56 180 0.9 1.7 0.00 0.00 0.00 72 1015.1
20260506041229 56 158 0.0 1.7 0.00 0.00 0.00 72 1015.2
20260506040715 56 203 0.0 3.5 0.00 0.00 0.00 72 1015.3
20260506040205 56 68 1.7 3.5 0.00 0.00 0.00 72 1015.3
20260506035655 56 135 0.9 3.5 0.00 0.00 0.00 72 1015.2
20260506035144 56 135 1.7 3.5 0.00 0.00 0.00 72 1015.4
20260506034123 56 113 1.7 3.5 0.00 0.00 0.00 72 1015.3
20260506033614 56 113 1.7 3.5 0.00 0.00 0.00 72 1015.4
20260506033104 56 113 2.6 3.5 0.00 0.00 0.00 72 1015.4
20260506032554 56 113 1.7 3.5 0.00 0.00 0.00 72 1015.5
20260506032048 56 135 1.7 3.5 0.00 0.00 0.00 72 1015.3
20260506031534 56 135 1.7 3.5 0.00 0.00 0.00 73 1015.1
20260506031025 56 158 1.7 3.5 0.00 0.00 0.00 72 1015.3
20260506030513 56 158 0.0 1.7 0.00 0.00 0.00 72 1015.3
20260506030003 56 180 0.0 1.7 0.00 0.00 0.00 72 1015.6
20260506025458 56 113 0.0 1.7 0.00 0.00 0.00 72 1015.4
20260506024944 56 158 0.0 0.0 0.00 0.00 0.00 72 1015.3
20260506024433 56 225 0.0 0.0 0.00 0.00 0.00 71 1015.2
20260506023922 57 113 0.0 1.7 0.00 0.00 0.00 71 1015.3
20260506022907 57 113 0.9 1.7 0.00 0.00 0.00 72 1015.3
20260506022353 57 158 0.9 1.7 0.00 0.00 0.00 71 1015.4
20260506021333 57 113 0.0 0.0 0.00 0.00 0.00 71 1015.3
20260506020317 57 158 0.0 1.7 0.00 0.00 0.00 71 1015.2
20260506015252 57 135 0.9 1.7 0.00 0.00 0.00 72 1015.2
20260506014741 57 135 1.7 1.7 0.00 0.00 0.00 72 1015.4
20260506013211 57 113 1.7 3.5 0.00 0.00 0.00 71 1015.4
20260506012702 57 90 0.0 3.5 0.00 0.00 0.00 71 1015.2
20260506012151 57 158 1.7 3.5 0.00 0.00 0.00 71 1015.5
20260506011641 57 158 2.6 3.5 0.00 0.00 0.00 71 1015.6
20260506010621 57 203 3.5 7.8 0.00 0.00 0.00 71 1015.5
20260506010110 57 158 2.6 7.8 0.00 0.00 0.00 71 1015.3
20260506005600 57 225 4.3 7.8 0.00 0.00 0.00 70 1015.6
20260506005050 57 135 4.3 7.0 0.00 0.00 0.00 70 1015.6
20260506004030 57 203 2.6 9.6 0.00 0.00 0.00 70 1015.5
20260506003010 58 180 6.1 9.6 0.00 0.00 0.00 69 1015.4
20260506001955 59 225 1.7 5.2 0.00 0.00 0.00 68 1015.1
20260506001439 59 180 2.6 5.2 0.00 0.00 0.00 68 1014.9
20260506000931 59 225 2.6 5.2 0.00 0.00 0.00 68 1014.8
20260506000419 60 135 3.5 3.5 0.00 0.00 0.00 67 1014.7
20260505235909 60 158 1.7 3.5 0.00 0.00 0.00 67 1014.5
20260505235405 60 158 0.0 1.7 0.00 0.00 0.00 67 1014.6
20260505234849 60 113 1.7 1.7 0.00 0.00 0.00 67 1014.4
20260505234339 60 158 1.7 3.5 0.00 0.00 0.00 67 1014.8
20260505233829 60 135 1.7 3.5 0.00 0.00 0.00 67 1014.5
20260505233319 60 135 1.7 6.1 0.00 0.00 0.00 66 1014.4
20260505232813 60 135 0.9 6.1 0.00 0.00 0.00 66 1014.2
20260505232258 60 158 3.5 6.1 0.00 0.00 0.00 66 1014.4
20260505231238 60 180 3.5 7.8 0.00 0.00 0.00 66 1014.2
20260505230729 60 203 4.3 7.0 0.00 0.00 0.00 66 1014.4
20260505230223 61 158 3.5 9.6 0.00 0.00 0.00 66 1014.0
20260505225708 61 180 3.5 9.6 0.00 0.00 0.00 65 1014.1
20260505225158 61 203 3.5 7.0 0.00 0.00 0.00 65 1014.1
20260505224648 61 225 3.5 9.6 0.00 0.00 0.00 65 1014.0
20260505224138 61 158 4.3 9.6 0.00 0.00 0.00 65 1013.9
20260505223637 61 225 4.3 9.6 0.00 0.00 0.00 65 1014.0
20260505223117 62 203 5.2 9.6 0.00 0.00 0.00 65 1013.5
20260505222608 62 180 4.3 7.0 0.00 0.00 0.00 64 1013.6
20260505222057 62 248 2.6 9.6 0.00 0.00 0.00 64 1013.7
20260505221547 62 203 6.1 9.6 0.00 0.00 0.00 64 1013.5
20260505221042 62 248 2.6 9.6 0.00 0.00 0.00 63 1013.6
20260505220016 63 180 4.3 7.8 0.00 0.00 0.00 63 1013.6
20260505215506 63 203 3.5 13.0 0.00 0.00 0.00 62 1013.1
20260505214957 64 180 7.0 13.0 0.00 0.00 0.00 62 1013.2
20260505213936 64 158 4.3 9.6 0.00 0.00 0.00 61 1012.9
20260505213426 65 203 5.2 9.6 0.00 0.00 0.00 61 1012.9
20260505212917 65 248 3.5 7.0 0.00 0.00 0.00 60 1012.9
20260505212406 65 135 2.6 7.0 0.00 0.00 0.00 60 1012.7
20260505211900 65 180 3.5 9.6 0.00 0.00 0.00 59 1012.7
20260505211347 65 248 3.5 9.6 0.00 0.00 0.00 59 1012.6
20260505205816 66 180 4.3 7.0 0.00 0.00 0.00 58 1012.2
20260505205309 66 180 1.7 7.0 0.00 0.00 0.00 57 1012.9
20260505204755 66 113 1.7 7.0 0.00 0.00 0.00 56 1012.4
20260505204245 67 203 5.2 7.8 0.00 0.00 0.00 56 1012.7
20260505203736 67 158 3.5 7.8 0.00 0.00 0.00 55 1012.4
20260505203224 67 180 3.5 7.8 0.00 0.00 0.00 54 1012.6
20260505202720 67 180 3.5 7.8 0.00 0.00 0.00 52 1012.7
20260505202204 67 158 3.5 6.1 0.00 0.00 0.00 51 1012.6
20260505200635 68 180 4.3 7.0 0.00 0.00 0.00 49 1012.6
20260505195614 68 203 3.5 7.8 0.00 0.00 0.00 49 1012.3
20260505195104 68 135 4.3 9.6 0.00 0.00 0.00 49 1012.3
20260505194554 68 113 6.1 9.6 0.00 0.00 0.00 49 1012.8
20260505193538 69 203 5.2 9.6 0.00 0.00 0.00 47 1012.3
20260505192514 69 158 4.3 9.6 0.00 0.00 0.00 46 1012.4
20260505192003 69 180 1.7 5.2 0.00 0.00 0.00 46 1012.1
20260505190948 70 180 2.6 6.1 0.00 0.00 0.00 45 1012.2
20260505190433 70 225 2.6 7.0 0.00 0.00 0.00 44 1012.1
20260505185922 70 203 2.6 7.0 0.00 0.00 0.00 43 1012.2
20260505185417 70 180 4.3 7.0 0.00 0.00 0.00 43 1012.2
20260505184902 70 225 1.7 7.0 0.00 0.00 0.00 42 1012.2
20260505184357 70 203 3.5 7.0 0.00 0.00 0.00 42 1012.1
20260505182823 71 203 4.3 7.8 0.00 0.00 0.00 41 1012.1
20260505182312 71 203 3.5 7.0 0.00 0.00 0.00 40 1012.0
20260505181807 71 248 2.6 7.0 0.00 0.00 0.00 40 1012.1
20260505181252 71 203 4.3 7.0 0.00 0.00 0.00 39 1012.0
20260505180742 71 225 3.5 7.0 0.00 0.00 0.00 39 1012.1
20260505175721 71 225 2.6 7.0 0.00 0.00 0.00 39 1011.9
20260505175216 71 225 3.5 7.0 0.00 0.00 0.00 38 1012.0
20260505174701 71 225 5.2 7.0 0.00 0.00 0.00 37 1012.0
20260505174151 72 180 2.6 7.8 0.00 0.00 0.00 37 1012.1
20260505173130 72 203 2.6 7.0 0.00 0.00 0.00 35 1011.7
20260505172625 73 158 3.5 6.1 0.00 0.00 0.00 35 1011.9
20260505172111 73 158 3.5 6.1 0.00 0.00 0.00 35 1011.8
20260505171601 73 225 3.5 6.1 0.00 0.00 0.00 35 1011.9
20260505171050 73 180 1.7 6.1 0.00 0.00 0.00 35 1011.8
20260505170541 73 203 1.7 6.1 0.00 0.00 0.00 35 1011.9
20260505170034 72 180 1.7 3.5 0.00 0.00 0.00 35 1011.9
20260505165519 72 248 1.7 3.5 0.00 0.00 0.00 36 1011.9
20260505165010 72 113 0.9 3.5 0.00 0.00 0.00 36 1012.1
20260505164500 72 180 3.5 3.5 0.00 0.00 0.00 36 1012.0
20260505163950 72 270 2.6 3.5 0.00 0.00 0.00 36 1012.0
20260505163445 74 180 0.9 3.5 0.00 0.00 0.00 35 1012.0
20260505162929 73 248 0.0 3.5 0.00 0.00 0.00 37 1012.2
20260505162420 71 225 1.7 3.5 0.00 0.00 0.00 37 1012.2
20260505161909 71 315 2.6 3.5 0.00 0.00 0.00 37 1012.3
20260505161359 70 270 1.7 5.2 0.00 0.00 0.00 38 1012.1
20260505160854 69 225 3.5 5.2 0.00 0.00 0.00 38 1012.3
20260505160338 71 225 1.7 3.5 0.00 0.00 0.00 37 1012.3
20260505152728 69 248 0.9 3.5 0.00 0.00 0.00 39 1012.7
20260505152218 69 270 1.7 3.5 0.00 0.00 0.00 39 1012.9